Epoch 2008 Nov. 30.0 TT = JDT 2454800.5
T 2008 Dec. 19.97242 TT                                 MPC
q   0.5349519            (2000.0)            P               Q
n   0.17403149     Peri.  345.78070     +0.17546683     -0.96845400
a   3.1772459      Node    93.88730     +0.91969130     +0.09712353
e   0.8316303      Incl.   10.21541     +0.35125391     +0.22948609
P   5.66
Residuals in seconds of arc
030526 703 (4.2+  0.2+)   030528 340 (2.9+  1.4+)   030602 620  0.0   0.0
030526 703 (4.1+  0.4+)   030528 340  0.0   0.5-    030602 620  0.0   0.3+
030526 703 (2.7+  0.2-)   030528 340 (1.2-  2.0+)   030602 620  0.6+  0.4-
030526 703 (5.4+  2.2-)   030528 367  0.2+  0.1-    030603 H72  0.1+  0.7-
030526 938  0.7-  1.3-    030528 367  0.7-  0.2-    030603 H72  1.2+  0.0
030526 938  1.3-  0.3+    030528 367  1.3+  1.1-    030603 H41  0.6-  0.3+
030526 938  1.0+  0.2-    030528 367  0.6-  0.1-    030603 H72 (4.4+  0.4+)
030526 938  1.0-  0.1-    030528 620  0.2+  0.0     030603 H41  1.3+  0.2+
030526 938  0.2+  0.9-    030528 620  0.4+  0.1+    030603 H72 (2.2+  2.3+)
030526 938  0.9-  0.5+    030528 213  0.2+  0.6+    030603 H41  0.5+  0.4+
030526 938  0.7-  0.6-    030528 620  0.4-  0.2-    030603 H41  0.2+  0.8+
030526 938  0.8+  0.4+    030528 213  0.0   0.7+    030603 H41  0.0   0.9+
030526 938  0.3-  0.6-    030528 620  0.3-  0.2-    030603 118  1.0+  1.7-
030526 938  1.6+  0.8-    030528 166  0.7+  0.3+    030603 118  2.0+  0.7-
030526 938  0.2-  0.3-    030528 166  0.6-  0.6+    030603 118  0.1+  0.7-
030526 938  1.4+  0.1+    030528 213  0.4-  0.6+    030605 620  1.1-  0.4+
030526 938  0.0   0.5+    030528 166 (2.5-  1.1+)   030606 620  0.9+  0.1+
030526 938  0.0   0.3+    030528 A32 (0.6-  2.4+)   030607 620  0.4+  0.5-
030526 938  0.8-  0.0     030528 A32  0.5+  0.6-    030607 620  0.5-  0.2-
030526 938  0.8+  0.1-    030529 H41  0.9+  0.2+    030607 620  0.9-  0.6+
030526 938  0.4-  0.4+    030529 H41  0.2+  0.2-    030608 046  1.1+  2.0+
030526 938  1.0+  0.2+    030529 H41 (3.4+  7.5-)   030608 046  0.8-  0.6+
030526 938  0.9-  0.6+    030529 750  0.1+  0.7-    030608 046  1.2+  1.2+
030526 938  0.1+  0.4-    030529 900  0.6-  0.6+    030610 620  0.0   0.8-
030526 938  1.7-  0.4+    030529 900  0.6-  1.3+    030610 620  0.1+  0.0
030526 938  0.7+  0.3-    030529 A46 (2.4+  1.0-)   030610 620  1.1+  0.9-
030526 938  1.3-  0.2+    030529 A46 (0.9+  2.2-)   030610 204 (2.0+  0.6-)
030526 938  1.1+  1.7-    030529 A46  0.1+  0.8-    030610 204 (5.7+  6.3-)
030526 938  0.1+  0.1+    030529 A46 (0.9+  2.6-)   030615 620  1.3+  0.6-
030526 938  0.9-  0.5+    030529 A46  1.1+  1.8-    030615 118 (5.4+  1.6-)
030526 938  0.8-  0.1+    030529 118  0.6+  0.7+    030615 118  0.3-  1.0+
030526 938  0.6+  0.1+    030529 A46  0.0   1.2-    030616 118  0.9+  1.3+
030526 938  0.2-  1.0+    030529 213  0.2-  0.6+    030616 118  0.6-  0.4+
030527 734  0.0   0.1+    030529 213  1.4-  0.5+    030616 118  0.7-  1.1+
030527 750  1.1-  1.0-    030529 118  0.1-  1.2+    030617 620  0.4-  0.6-
030527 750 (2.8-  0.6-)   030529 213 (2.6-  0.8+)   030617 620  0.2-  1.7-
030527 734  0.6-  0.2-    030529 118  0.5+  0.1-    030617 620  0.8+  0.3-
030527 750  1.1-  0.5+    030529 A32  0.4+  1.1+    030618 620  0.5-  0.7-
030527 333  0.7+  0.5+    030529 A32  0.1-  1.1-    030619 H41  1.9-  1.8+
030527 333  0.6-  0.6+    030530 H72  1.1+  0.4-    030619 H41 (3.3-  0.6+)
030527 333  0.8+  0.3-    030530 H72 (3.0-  0.6-)   030619 H41  0.4-  1.8+
030527 333  0.4-  0.6+    030530 H41 (0.4+  2.1-)   030620 360  0.6+  0.2-
030527 333  0.4+  0.1+    030530 H41  1.3-  0.5-    030620 360  1.1+  1.0-
030527 333  0.8+  0.6-    030530 H72  1.1+  0.2-    030620 360  0.2+  0.8-
030527 926  0.5-  0.4+    030530 673  1.3-  0.2-    030620 118 (2.5+  1.6-)
030527 926  0.4-  0.4-    030530 673  0.5-  0.4-    030620 118 (2.2+  0.5-)
030527 926  0.3-  0.1-    030530 673  0.9-  0.2-    030620 215  0.8+  1.6+
030527 699 (2.1+  1.5-)   030530 673  0.0   0.4-    030622 H41  1.1-  0.7+
030527 673  0.3-  0.7-    030530 921  1.8+  1.9+    030622 H41 (2.8-  1.2+)
030527 699 (2.5+  0.5-)   030530 921 (1.0-  2.5+)   030622 H41  0.4-  0.3+
030527 673  1.0-  0.6-    030530 673  0.3-  0.6-    030623 H41 (0.3+  2.6-)
030527 699  1.9+  0.7-    030530 673  1.0-  0.4-    030623 H41  1.3+  0.1+
030527 333  1.0+  0.5-    030530 673  0.7-  0.3-    030623 H41  1.0+  1.1-
030527 333 (3.3+  2.6-)   030530 673  1.1-  0.6-    030624 H41  0.1+  1.5+
030527 673  0.4-  0.7-    030530 587 (1.8-  2.1+)   030624 H41 (2.3+  0.8+)
030527 333 (2.3+  4.2-)   030530 587 (1.8+  3.4-)   030624 H41  0.7+  0.1+
030527 673  0.6-  0.4-    030530 587  1.4-  0.4-    030625 H41 (1.5+  2.5+)
030527 333  1.1+  1.2-    030530 232 (2.3+  1.6-)   030625 H41 (2.5-  0.7-)
030527 333  1.1+  0.4-    030530 232 (1.6-  2.7+)   030628 H41  0.2+  1.0+
030527 333  0.5-  1.3-    030530 J87  1.4-  2.0+    030628 H41  0.5-  1.5+
030527 699 (2.4+  1.4-)   030530 J87  0.0   0.4-    030628 H41 (1.4+  2.5+)
030527 333  0.3+  0.5-    030530 J87  0.7+  0.4-    030629 H41  0.5-  0.6-
030527 333  1.2+  0.3-    030530 J87  0.2-  0.6-    030629 H41  0.1-  0.2-
030527 673  0.7-  0.4-    030531 H72  0.1-  0.5-    030629 H41  0.1+  1.3+
030527 703 (0.5+  2.1-)   030531 H72  1.7+  0.2+    030702 H41 (2.7+  2.7-)
030527 734  1.5+  0.5-    030531 H72 (1.2+  2.4+)   030702 H41 (1.3+  3.1-)
030527 854  0.2+  0.2-    030531 H72 (4.0-  3.1+)   081208 C50 (5.5+ 39.9+)Y
030527 734 (2.4+  0.2+)   030531 H41 (0.3-  2.3+)   081208 C50 (9.9+ 37.5+)Y
030527 703 (2.2+  0.2+)   030531 H41  0.1+  1.2-    081208 C50 (8.4+  4.2+)Y
030527 333  1.3+  0.2-    030531 H41  0.2-  1.3-    081208 C50(21.6+ 32.8+)Y
030527 703 (2.4+  0.4-)   030531 H41  0.7-  0.2-    081208 C50(18.3+ 12.0+)Y
030527 333  0.3-  1.1-    030531 H41  0.5+  0.4-    081208 C50(29.5+ 26.0+)Y
030527 333  1.5+  0.7+    030531 H41  0.9+  0.0     081208 C50 (1.9-  3.8+)Y
030527 670  1.1-  0.7+    030531 A01  1.3+  1.7-    081208 C50(10.5+ 22.1+)Y
030527 333  1.7+  0.1+    030531 A01 (7.3-  0.2-)   081208 C50 (0.9- 34.0+)Y
030527 333  0.5+  0.4-    030601 360  0.2-  0.4+    081208 C50(20.1+  8.6-)Y
030527 333 (2.6+  0.8-)   030601 360  0.4-  0.0     081209 C50 (9.4+ 21.9+)Y
030527 333  0.8+  0.2+    030601 367  0.3-  0.3+    081209 C50(20.8- 13.9+)Y
030527 333 (0.0   2.9-)   030601 367  0.6-  0.9-    081209 C50(15.9+ 22.6+)Y
030527 673  0.2-  0.0     030601 360  0.5-  0.2-    081209 C50(25.3+ 41.4+)Y
030527 703  1.4-  0.9+    030601 900  1.7-  1.9-    081209 C50(18.0+  7.7+)Y
030527 670  0.9-  0.8+    030601 367  0.0   0.4-    081209 C50 (3.0- 34.5+)Y
030527 673  0.5-  0.3-    030601 367  0.8-  0.4+    081209 C50(30.5- 25.9+)Y
030527 673  0.1-  0.2-    030601 372  1.5-  1.1-    081209 C50(32.1+ 23.8+)Y
030527 673  0.3-  0.2+    030601 349  1.8-  0.2+    081209 C50 (7.4+ 50.3+)Y
030527 176  0.5+  0.2+    030601 900  0.8+  0.3-    081209 C50(25.3+ 12.4+)Y
030527 176  0.3+  0.1+    030601 349  1.2-  0.0     081209 C50 (9.2+ 12.9+)Y
030527 176  0.1+  0.1+    030601 349  1.0-  0.8-    081209 C50(11.1+ 27.1+)Y
030527 176  0.1-  0.0     030602 H72 (2.2+  1.2-)   081209 C50(42.7+ 43.8+)Y
030527 176  0.3-  0.1-    030602 H72  0.5-  1.0-    081209 C50 (2.7+ 28.1+)Y
030528 H41  0.9-  1.1+    030602 H72  0.6-  0.3+    081209 C50(14.0+  1.0-)Y
030528 H41  0.5-  0.1-    030602 H72  1.5+  0.8+    081209 C50(10.1+ 20.4+)Y
030528 H41  0.3-  1.2-    030602 703  1.0+  1.3+    081209 C50(19.9+ 12.3+)Y
030528 673  0.2+  0.3-    030602 703 (2.4+  0.5+)   081230 349  0.9-  1.1+
030528 673  0.7-  0.3+    030602 703  1.0+  0.4+    081230 349  1.3-  0.4+
030528 673  0.3-  0.3+    030602 703  1.7+  0.3-    081230 349  0.2-  0.7+
030528 673 (2.1-  0.1+)   030602 340  0.1-  1.3+    081230 349  0.2-  1.0+
030528 673  0.7-  0.0     030602 340  0.7+  0.2-    081231 349  0.8+  0.4-
030528 673  0.2-  0.1+    030602 340 (0.1+  2.5-)   081231 349  0.7+  0.4-
030528 340  1.7-  1.8+    030602 372  1.1-  0.6+    081231 349  0.6+  0.2-
030528 340  1.5+  1.3+    030602 340  1.4+  0.9+    081231 349  1.0+  0.5-
030528 340  1.1+  1.9+    030602 372  0.8-  0.4-

Ephemeris:
    P/2003 K2 = 2008 X4 (Christensen)
Date    TT    R. A. (2000) Decl.     Delta      r     Elong.  Phase   m1    m2
2008 12 30    17 22.51   -19 01.3    0.445    0.576    17.9   148.4   9.3
2009 01 01    17 10.39   -17 31.5    0.454    0.593    23.1   139.5   9.5
2009 01 03    16 59.82   -16 07.1    0.466    0.612    27.9   131.3   9.7
2009 01 05    16 50.79   -14 49.6    0.479    0.632    32.3   123.8   9.9
2009 01 07    16 43.18   -13 39.6    0.495    0.655    36.4   116.9  10.1

2009 01 09    16 36.86   -12 37.0    0.510    0.679    40.2   110.8  10.4
2009 01 19    16 18.68   -08 52.4    0.591    0.811    55.5    87.6  11.4
2009 01 29    16 11.52   -06 30.6    0.657    0.954    67.7    72.7  12.4
2009 02 08    16 06.53   -04 36.1    0.703    1.098    79.2    61.9  13.1
2009 02 18    15 59.72   -02 44.5    0.733    1.240    90.9    52.8  13.8
2009 02 28    15 49.01   -00 46.5    0.754    1.378   103.5    44.4  14.3
2009 03 10    15 33.51   +01 17.0    0.775    1.511   116.9    35.9  14.7
2009 03 20    15 13.55   +03 18.0    0.804    1.640   131.0    27.3  15.2
2009 03 30    14 50.58   +05 03.5    0.851    1.764   144.8    19.0  15.6
2009 04 09    14 27.09   +06 20.0    0.923    1.884   156.5    12.3  16.1
2009 04 19    14 05.65   +07 00.8    1.023    2.000   161.3     9.2  16.6

                       (Last issue was M.P.E.C. 2008-Y86)

Brian G. Marsden             (C) Copyright 2009 MPC           M.P.E.C. 2009-A01

Read MPEC 2008-Y86 Read MPEC 2009-A02


MPEC number:

Enter an MPEC number in one of the following forms:

  • 1997-B01 (the full form)
  • J97B01 (the packed version of the full form)
  • B01 (the abbreviated form)

